Voltar ao catálogo

SL-8 DEB

AtivoLEO
NORAD 15756·DEBRIS·🇷🇺 Russia

Lançado Aug 3, 1983 de Plesetsk Cosmodrome

Loading…

Próximas Passagens (próximas 24 horas)

TLE

AtualizadoSource: Space-Track

Época: Sep 14, 2026, 06:23 UTC

1 15756U 83079D   26257.26645341  .00003408  00000-0  37950-3 0  9996
2 15756  74.0435 354.2153 0007252 119.4782 240.7122 14.87504974191569

Acompanhe SL-8 DEB em tempo real com AllMySat

Download on the App Store